www.pogodaiklimat.ru

Погода и климат >> Архив погоды >> Россия >> Чукотка >> Марково


АРХИВ ПОГОДЫ в Марково

Время (UTC), дата Ветер
(напр.,м/с)
 
Видим.   Явления Облачность Т
(С)
Тd
(С)
f
(%)
Тe
(С)
Тes
(С)
Комфортность P
(гПа)
Po
(гПа)
Тmin
(С)
Tmax
(С)
R
(мм)
R24
(мм)
S
(см)
00 18.03 С 1
{4}
50 км 10/0
[Cs]
-21.6 -26.4 65 -25 -21 1005.5 1002.3
03 18.03 СЗ 1
{4}
50 км 10/0
[Cs]
-19.0 -25.8 55 -22 -19 1004.3 1001.1
06 18.03 Ю 1
{3}
10 км снежные кристаллы 10/0
[Cs]
-21.3 -25.3 70 -24 -24 1003.5 1000.3 -18.0 0.0
09 18.03 З 2
{3}
20 км {снег} 4/0
[Ci fib]
-28.1 -31.1 75 -35 -35 опасность
обморожения
1003.8 1000.4
12 18.03 З 2
{5}
20 км {снег} 3/0
[Ci fib]
-25.3 -29.9 65 -32 -32 опасность
обморожения
1003.8 1000.5
15 18.03 З 2
{4}
20 км 5/0
[Ci fib]
-27.8 -31.7 69 -35 -35 опасность
обморожения
1004.3 1001.0
18 18.03 З 1
{4}
20 км 3/0
[Ci fib]
-28.0 -31.8 70 -32 -32 опасность
обморожения
1005.2 1001.8 -31.8 0.0 73
21 18.03 З 2
{4}
50 км 6/0
[Ac trans Ci fib]
-24.4 -30.0 60 -31 -30 опасность
обморожения
1006.2 1002.9
00 19.03 З 3
{4}
50 км 4/0
[Ac trans Ci fib]
-20.7 -28.4 50 -28 -25 1007.0 1003.8
03 19.03 З 3
{5}
50 км 10/0
[Ac trans Cs]
-18.7 -25.5 55 -26 -24 1008.0 1004.8
06 19.03 З 2
{6}
4000 м слаб. снег {метель} 10/0
[Ac As]
-18.8 -21.4 80 -24 -24 1009.2 1006.0 -18.5 0.2
09 19.03 З 2
{4}
4000 м слаб. снег 10/0
[Ac trans Cs]
-19.7 -22.3 80 -25 -25 1010.9 1007.7
12 19.03 З 3
{5}
10 км снежные кристаллы 10/0
[Ac trans Cs]
-20.5 -23.0 80 -28 -28 1012.2 1009.0
15 19.03 З 2
{5}
4000 м слаб. снег 10/0
[Ac trans Cs]
-20.5 -23.8 75 -26 -26 1013.7 1010.4
18 19.03 ЮЗ 1
{4}
10 км снежные кристаллы 10/0
[Ac trans Cs]
-21.8 -25.0 75 -25 -25 1015.0 1011.7 -21.8 0.4 73
21 19.03 Ю 2
{4}
50 км {снег} 10/0
[Ac trans Cs]
-23.9 -27.8 70 -30 -29 1016.8 1013.5 -26.6
00 20.03 ЮЗ 3
{5}
50 км {снег} 9/0
[Cs]
-19.1 -25.9 55 -27 -24 1018.3 1015.0
03 20.03 С 2
{5}
50 км 9/0
[Cs]
-16.5 -23.4 55 -22 -19 1018.9 1015.7
06 20.03 С 2
{5}
50 км 8/0
[Ci fib]
-18.2 -26.1 50 -24 -24 1020.4 1017.1 -15.9 0.0
09 20.03 С 1
{4}
20 км 6/0
[Ci fib]
-25.9 -29.8 70 -30 -30 1022.5 1019.1
12 20.03 С 2
{3}
20 км 4/0
[Ci fib]
-27.6 -31.3 71 -35 -35 опасность
обморожения
1023.8 1020.4
15 20.03 С 2
{4}
20 км 9/0
[Ac trans Ci]
-26.6 -30.4 70 -34 -34 опасность
обморожения
1024.8 1021.4
18 20.03 С 2
{5}
20 км 10/0
[Ac und]
-22.9 -27.7 65 -29 -29 1025.2 1021.8 -29.7 73
21 20.03 С 3
{6}
50 км 8/0
[Ac trans Cs]
-22.9 -28.6 60 -31 -30 опасность
обморожения
1026.2 1022.8
00 21.03 С 3
{6}
50 км позёмок 6/0
[Cs]
-19.6 -27.4 50 -27 -24 1026.0 1022.7
03 21.03 С 3
{6}
50 км 10/0
[Cs]
-17.5 -25.4 50 -25 -23 1025.7 1022.4
06 21.03 СВ 1
{5}
50 км 10/0
[Ac trans Cs]
-17.9 -25.8 50 -21 -21 1025.7 1022.4 -17.0
09 21.03 СЗ 1
{2}
20 км 10/0
[Cs]
-26.5 -29.0 79 -30 -30 1026.2 1022.8
12 21.03 СЗ 2
{2}
20 км 10/0
[Cs]
-28.7 -31.2 79 -36 -36 опасность
обморожения
1026.3 1022.9
15 21.03 СЗ 1
{3}
20 км 8/0
[Ci fib]
-30.8 -33.8 75 -35 -35 опасность
обморожения
1026.3 1022.9
18 21.03 штиль 0
{2}
20 км 6/0
[Ci fib]
-33.9 -37.5 70 -34 -34 опасность
обморожения
1026.5 1023.0 -33.9 72
21 21.03 штиль 0
{1}
50 км 8/0
[Ci fib]
-23.4 -26.6 75 -23 -22 1026.5 1023.1 -34.3
00 22.03 ЮЗ 1
{2}
50 км 10/0
[Cs]
-18.1 -27.1 45 -21 -17 1026.1 1022.8
03 22.03 ЮЗ 1
{3}
50 км 9/0
[Ci fib]
-17.5 -25.4 50 -20 -17 1025.6 1022.4
06 22.03 Ю 1
{2}
50 км 10/0
[Cs]
-19.6 -26.3 55 -23 -22 1025.7 1022.4 -16.9
09 22.03 штиль 0
{2}
20 км 3/0
[Ci fib]
-29.1 -32.2 74 -29 -29 1025.7 1022.3
12 22.03 штиль 0
{1}
20 км 3/0
[Ci fib]
-32.4 -35.5 74 -32 -32 опасность
обморожения
1025.1 1021.7
15 22.03 штиль 0
{2}
20 км 4/0
[Ci fib]
-33.8 -37.5 69 -34 -34 опасность
обморожения
1023.9 1020.4
18 22.03 СЗ 1
{2}
20 км 4/0
[Ci fib]
-34.7 -38.4 69 -39 -39 опасность
обморожения
1023.0 1019.5 -34.9 72
21 22.03 штиль 0
{1}
50 км 3/0
[Ci fib]
-24.2 -28.1 70 -24 -22 1021.5 1018.2 -35.0
00 23.03 ЮЗ 2
{4}
50 км 3/0
[Ci fib]
-19.0 -25.8 55 -25 -20 1019.2 1015.9
03 23.03 ЮЗ 2
{4}
50 км 3/0
[Ci fib]
-15.7 -21.7 60 -21 -18 1016.7 1013.5
06 23.03 Ю 2
{4}
50 км 3/0
[Ci fib]
-19.1 -24.9 60 -25 -25 1015.3 1012.0 -15.6
09 23.03 штиль 0
{3}
20 км 4/0
[Ci fib]
-29.9 -33.0 74 -30 -30 1013.8 1010.4
12 23.03 В 1
{2}
20 км 5/0
[Ci fib]
-35.1 -38.7 69 -40 -40 опасность
обморожения
1012.6 1009.1
15 23.03 С 1
{2}
20 км 5/0
[Ci fib]
-36.6 -40.7 66 -41 -41 опасность
обморожения
1010.5 1007.1
18 23.03 С 1
{1}
20 км 5/0
[Ci fib]
-37.3 -41.5 65 -42 -42 опасность
обморожения
1008.9 1005.5 -37.5 71
21 23.03 С 1
{2}
50 км 8/0
[Ac trans Ci]
-23.2 -26.4 75 -27 -25 1007.3 1004.0 -37.9
00 24.03 С 2
{4}
50 км 9/0
[Ac trans Cs]
-20.1 -25.9 60 -26 -23 1005.5 1002.3
03 24.03 С 3
{6}
50 км 10/0
[Ac As Cs]
-15.2 -21.2 60 -22 -21 1003.5 1000.3
06 24.03 С 2
{6}
4000 м слаб. снег 10/0
[As op]
-15.4 -18.1 80 -20 -20 1002.7 999.5 -14.4 0.0
09 24.03 С 3
{7}
4000 м слаб. снег 10/5 600 м
[Sc As op]
-14.8 -16.8 85 -21 -21 1001.6 998.5
12 24.03 С 3
{7}
2000 м снег {метель} 10/8 300 м
[Frnb As op]
-13.3 -14.6 90 -20 -20 1000.0 996.9
15 24.03 С 3
{7}
4000 м слаб. снег {метель} 10/8 300 м
[Frnb As op]
-13.9 -15.2 90 -20 -20 998.5 995.4
18 24.03 С 3
{8}
4000 м слаб. снег {метель} 10/5 600 м
[Sc As op]
-12.6 -13.9 90 -19 -19 997.3 994.2 -15.5 2 73
21 24.03 С 2
{6}
2000 м снег 10/4 600 м
[Sc As op]
-11.4 -12.7 90 -16 -16 996.8 993.7

 

Местоположение метеостанции Марково (Чукотка, Россия): широта 64.68 долгота 170.40 высота над уровнем моря 26 м.

В архиве по умолчанию представлена погода в Марково за последнюю неделю. Архивные данные за месяц целиком и за предыдущие месяцы, начиная с января 2011 года, Вы можете получить, выбрав интересующий диапазон дат из раскрывающегося списка и нажав кнопку "Ввод!".


*Определитесь, кто Вы:
робот инопланетянин человек

Внимание! Время в таблицах - всемирное. Для получения местного времени необходимо прибавить поправку, которая равна 12 ч.

Смотрите также архив погоды в соседних городах и на ближайших метеорологических станциях:

Погода в Танюрере (Чукотка, Россия) (191 км)
Погода в Слаутном (Камчатский край, Россия) (208 км)
Погода в Эньмувееме (Чукотка, Россия) (231 км)
Погода в Верхне-Пенжино (Камчатский край, Россия) (302 км)
Погода в Канчалане (Чукотка, Россия) (302 км)
Погода в Илирнее (Чукотка, Россия) (307 км)
Погода в Каменском (Камчатский край, Россия) (321 км)
Погода в Анадыре (Чукотка, Россия) (337 км)
Погода в Анадыре АМС (Чукотка, Россия) (338 км)
Погода в Баимке (Чукотка, Россия) (351 км)

Пояснения к столбцам:

Ветер - указаны скорость ветра в м/с - средняя за 10 мин, порывы в срок и между сроками (в фигурных скобках) и направление, откуда дует ветер: С - северный, СВ - северо-восточный, В - восточный, ЮВ - юго-восточный, Ю - южный, ЮЗ - юго-западный, З - западный, СЗ - северо-западный.
Видимость - горизонтальная дальность видимости в метрах или километрах. При видимости от 1 до 10 км при отсутствии осадков обычно наблюдается дымка, при ухудшении видимости до 1 км и менее - туман. В сухую погоду видимость может ухудшаться дымом, пылью или мглою.
Явления - указаны атмосферные явления, наблюдавшиеся в срок или в последний час перед сроком; фигурными скобками обозначены явления, наблюдавшиеся между сроками (за 1-3 часа до срока); квадратными скобками обозначены град или гололедные отложения с указанием их диаметра в мм.
Облачность - указаны через наклонную черту общая и нижняя облачность в баллах и высота нижней границы облаков в метрах; квадратными скобками обозначены формы облаков: Ci - перистые, Cs - перисто-слоистые, Cc - перисто-кучевые, Ac - высококучевые, As - высокослоистые, Sc - слоисто-кучевые, Ns - слоисто-дождевые, Cu - кучевые, Cb - кучево-дождевые. Подробнее классификацию облаков см. в Атласе облаков (PDF).
T - Температура воздуха - температура, измеренная на высоте 2 м над землей.
Td - Температура точки росы - температура, при понижении до которой содержащийся в воздухе водяной пар достигнет насыщения.
f - Относительная влажность воздуха - влажноcть воздуха, измеренная на высоте 2 м над землей.
Te - Эффективная температура - температура, которую ощущает одетый по сезону человек в тени. Характеристика душности погоды. При расчете учитывается влияние влажности воздуха и скорости ветра на теплоощущения человека.
Tes - Эффективная температура на солнце - температура, которую ощущает человек, с поправкой на солнечный нагрев. Характеристика знойности погоды. Зависит от высоты солнца над горизонтом, облачности и скорости ветра. Ночью, в пасмурную погоду, а также при ветре 12 м/с и более поправка равна нулю.
P - Атмосферное давление - приведенное к уровню моря атмосферное давление.
Po - Атмосферное давление - измеренное на уровне метеостанции атмосферное давление.
Tmin - Минимальная температура - минимум температуры воздуха на высоте 2 м над землей.
Tmax - Максимальная температура - максимум температуры воздуха на высоте 2 м над землей.
R - Количество осадков - Количество выпавших осадков за период времени, мм. При наведении курсора мыши на число - период времени, за который выпало указанное количество осадков.
R24 - Количество осадков - Количество выпавших осадков за 24 часа, мм.
S - Снежный покров - Высота снежного покрова, см. При наведении курсора мыши на число - состояние снежного покрова и степень покрытия местности в баллах.